• în România
  • Lista ţărilor
  • Pe 7 zile
  • Temperatura apei
  • Hartă satelitară
  • Meteo pe hartă
  • Widget-uri
  • user-avatar
    Intrare

    Meteo pe oră la Sorola

    Astăzi, 16 Octombrie, Marţi

    Timp Temperatura Precipitaţii Vânt Presiune Umiditate
    00:00 +10°C° 0 mm 3 m/s 757 mmHg 91%
    01:00 +10°C° 0 mm 3 m/s 757 mmHg 91%
    02:00 +10°C° 0 mm 2 m/s 757 mmHg 92%
    03:00 +11°C° 0.2 mm 3 m/s 756 mmHg 91%
    04:00 +11°C° 0.2 mm 4 m/s 756 mmHg 90%
    05:00 +11°C° 0.2 mm 4 m/s 755 mmHg 89%
    06:00 +10°C° 0 mm 5 m/s 755 mmHg 88%
    07:00 +10°C° 0 mm 5 m/s 754 mmHg 87%
    08:00 +11°C° 0 mm 6 m/s 754 mmHg 86%
    09:00 +11°C° 0.1 mm 6 m/s 753 mmHg 85%
    10:00 +11°C° 0.1 mm 6 m/s 753 mmHg 84%
    11:00 +11°C° 0.1 mm 6 m/s 753 mmHg 84%
    12:00 +11°C° 0.1 mm 7 m/s 754 mmHg 83%
    13:00 +10°C° 0.1 mm 7 m/s 754 mmHg 82%
    14:00 +10°C° 0.1 mm 7 m/s 755 mmHg 81%
    15:00 +9°C° 0 mm 6 m/s 756 mmHg 81%
    16:00 +8°C° 0 mm 6 m/s 757 mmHg 80%
    17:00 +8°C° 0 mm 6 m/s 758 mmHg 80%
    18:00 +8°C° 0 mm 5 m/s 758 mmHg 81%
    19:00 +7°C° 0 mm 5 m/s 759 mmHg 81%
    20:00 +7°C° 0 mm 4 m/s 760 mmHg 81%
    21:00 +6°C° 0 mm 4 m/s 760 mmHg 84%
    22:00 +6°C° 0 mm 4 m/s 761 mmHg 87%
    23:00 +5°C° 0 mm 4 m/s 761 mmHg 91%

    Mâine, 17 Octombrie, Miercuri

    Timp Temperatura Precipitaţii Vânt Presiune Umiditate
    00:00 +4°C° 0 mm 4 m/s 762 mmHg 92%
    01:00 +4°C° 0 mm 4 m/s 762 mmHg 93%
    02:00 +4°C° 0 mm 4 m/s 762 mmHg 94%
    03:00 +3°C° 0 mm 4 m/s 763 mmHg 94%
    04:00 +3°C° 0 mm 3 m/s 763 mmHg 93%
    05:00 +3°C° 0 mm 3 m/s 763 mmHg 93%
    06:00 +3°C° 0 mm 3 m/s 763 mmHg 92%
    07:00 +3°C° 0 mm 3 m/s 764 mmHg 90%
    08:00 +3°C° 0 mm 3 m/s 764 mmHg 89%
    09:00 +4°C° 0 mm 3 m/s 764 mmHg 84%
    10:00 +5°C° 0 mm 3 m/s 764 mmHg 79%
    11:00 +7°C° 0 mm 3 m/s 764 mmHg 74%
    12:00 +7°C° 0 mm 3 m/s 764 mmHg 74%
    13:00 +7°C° 0 mm 3 m/s 764 mmHg 74%
    14:00 +8°C° 0 mm 3 m/s 763 mmHg 74%
    15:00 +7°C° 0 mm 3 m/s 763 mmHg 76%
    16:00 +7°C° 0 mm 3 m/s 763 mmHg 78%
    17:00 +5°C° 0 mm 4 m/s 762 mmHg 80%
    18:00 +5°C° 0 mm 4 m/s 762 mmHg 81%
    19:00 +6°C° 0 mm 5 m/s 761 mmHg 81%
    20:00 +6°C° 0 mm 5 m/s 760 mmHg 82%
    21:00 +6°C° 0.6 mm 5 m/s 760 mmHg 85%
    22:00 +7°C° 0.6 mm 5 m/s 759 mmHg 89%
    23:00 +7°C° 0.6 mm 5 m/s 758 mmHg 92%

    Poimâine, 18 Octombrie, Joi

    Timp Temperatura Precipitaţii Vânt Presiune Umiditate
    00:00 +8°C° 0.2 mm 5 m/s 758 mmHg 93%
    01:00 +8°C° 0.2 mm 5 m/s 757 mmHg 94%
    02:00 +10°C° 0.2 mm 4 m/s 757 mmHg 94%
    03:00 +10°C° 0.2 mm 4 m/s 757 mmHg 95%
    04:00 +10°C° 0.2 mm 4 m/s 756 mmHg 95%
    05:00 +10°C° 0.2 mm 4 m/s 756 mmHg 95%
    06:00 +10°C° 0.1 mm 4 m/s 756 mmHg 95%
    07:00 +10°C° 0.1 mm 4 m/s 756 mmHg 95%
    08:00 +10°C° 0.1 mm 4 m/s 756 mmHg 95%
    09:00 +10°C° 0 mm 3 m/s 756 mmHg 93%
    10:00 +11°C° 0 mm 3 m/s 756 mmHg 91%
    11:00 +11°C° 0 mm 3 m/s 756 mmHg 89%
    12:00 +11°C° 0 mm 3 m/s 755 mmHg 89%
    13:00 +11°C° 0 mm 3 m/s 755 mmHg 90%
    14:00 +12°C° 0 mm 2 m/s 755 mmHg 90%
    15:00 +11°C° 0.1 mm 3 m/s 755 mmHg 92%
    16:00 +10°C° 0.1 mm 3 m/s 754 mmHg 93%
    17:00 +10°C° 0.1 mm 3 m/s 754 mmHg 95%
    18:00 +10°C° 0.6 mm 3 m/s 753 mmHg 95%
    19:00 +10°C° 0.6 mm 3 m/s 752 mmHg 96%
    20:00 +10°C° 0.6 mm 3 m/s 752 mmHg 96%
    21:00 +10°C° 1.2 mm 4 m/s 751 mmHg 95%
    22:00 +10°C° 1.2 mm 4 m/s 751 mmHg 93%
    23:00 +8°C° 1.2 mm 5 m/s 750 mmHg 91%

    19 Octombrie, Vineri

    Timp Temperatura Precipitaţii Vânt Presiune Umiditate
    00:00 +7°C° 0.6 mm 5 m/s 750 mmHg 87%
    01:00 +7°C° 0.6 mm 6 m/s 750 mmHg 83%
    02:00 +5°C° 0.6 mm 7 m/s 750 mmHg 79%
    03:00 +4°C° 0 mm 7 m/s 751 mmHg 81%
    04:00 +3°C° 0 mm 6 m/s 751 mmHg 82%
    05:00 +3°C° 0 mm 6 m/s 751 mmHg 84%
    06:00 +3°C° 0 mm 7 m/s 751 mmHg 83%
    07:00 +4°C° 0 mm 7 m/s 751 mmHg 83%
    08:00 +4°C° 0 mm 7 m/s 752 mmHg 83%
    09:00 +4°C° 0 mm 7 m/s 752 mmHg 81%
    10:00 +5°C° 0 mm 7 m/s 752 mmHg 79%
    11:00 +5°C° 0 mm 7 m/s 752 mmHg 77%
    12:00 +5°C° 0 mm 7 m/s 752 mmHg 76%
    13:00 +6°C° 0 mm 7 m/s 752 mmHg 76%
    14:00 +6°C° 0 mm 7 m/s 752 mmHg 75%
    15:00 +6°C° 0.1 mm 7 m/s 752 mmHg 76%
    16:00 +6°C° 0.1 mm 7 m/s 752 mmHg 76%
    17:00 +6°C° 0.1 mm 7 m/s 752 mmHg 77%
    18:00 +6°C° 0.1 mm 7 m/s 753 mmHg 77%
    19:00 +5°C° 0.1 mm 7 m/s 753 mmHg 76%
    20:00 +5°C° 0.1 mm 7 m/s 753 mmHg 76%
    21:00 +4°C° 0 mm 7 m/s 754 mmHg 77%
    22:00 +4°C° 0 mm 7 m/s 754 mmHg 78%
    23:00 +3°C° 0 mm 7 m/s 754 mmHg 79%

    20 Octombrie, Sâmbătă

    Timp Temperatura Precipitaţii Vânt Presiune Umiditate
    00:00 +3°C° 0 mm 7 m/s 755 mmHg 80%
    01:00 +3°C° 0 mm 6 m/s 755 mmHg 81%
    02:00 +3°C° 0 mm 6 m/s 756 mmHg 82%
    03:00 +2°C° 0 mm 6 m/s 756 mmHg 84%
    04:00 +2°C° 0 mm 6 m/s 756 mmHg 85%
    05:00 +2°C° 0 mm 6 m/s 757 mmHg 87%
    06:00 +2°C° 0 mm 6 m/s 757 mmHg 88%
    07:00 +1°C° 0 mm 5 m/s 758 mmHg 89%
    08:00 +1°C° 0 mm 5 m/s 758 mmHg 90%
    09:00 +2°C° 0 mm 5 m/s 759 mmHg 87%
    10:00 +3°C° 0 mm 5 m/s 759 mmHg 85%
    11:00 +4°C° 0 mm 4 m/s 760 mmHg 82%
    12:00 +4°C° 0 mm 4 m/s 760 mmHg 81%
    13:00 +5°C° 0 mm 4 m/s 760 mmHg 81%
    14:00 +5°C° 0 mm 3 m/s 761 mmHg 80%
    15:00 +4°C° 0 mm 3 m/s 761 mmHg 84%
    16:00 +3°C° 0 mm 3 m/s 761 mmHg 88%
    17:00 +2°C° 0 mm 3 m/s 762 mmHg 92%
    18:00 +2°C° 0 mm 3 m/s 762 mmHg 92%
    19:00 +3°C° 0 mm 2 m/s 762 mmHg 93%
    20:00 +3°C° 0 mm 2 m/s 762 mmHg 93%
    21:00 +2°C° 0 mm 2 m/s 762 mmHg 93%
    22:00 +2°C° 0 mm 2 m/s 762 mmHg 93%
    23:00 +2°C° 0 mm 2 m/s 762 mmHg 94%

    21 Octombrie, Duminică

    Timp Temperatura Precipitaţii Vânt Presiune Umiditate
    00:00 +2°C° 0 mm 2 m/s 762 mmHg 94%
    01:00 +2°C° 0 mm 2 m/s 762 mmHg 94%
    02:00 +2°C° 0 mm 2 m/s 762 mmHg 95%
    03:00 +2°C° 0 mm 2 m/s 762 mmHg 95%
    04:00 +1°C° 0 mm 2 m/s 762 mmHg 95%
    05:00 +1°C° 0 mm 2 m/s 762 mmHg 95%
    06:00 +2°C° 0 mm 2 m/s 762 mmHg 95%
    07:00 +2°C° 0 mm 2 m/s 762 mmHg 94%
    08:00 +2°C° 0 mm 2 m/s 762 mmHg 94%
    09:00 +3°C° 0 mm 2 m/s 762 mmHg 90%
    10:00 +4°C° 0 mm 2 m/s 762 mmHg 86%
    11:00 +5°C° 0 mm 2 m/s 762 mmHg 82%
    12:00 +5°C° 0 mm 2 m/s 762 mmHg 83%
    13:00 +5°C° 0 mm 2 m/s 762 mmHg 83%
    14:00 +5°C° 0 mm 3 m/s 761 mmHg 84%
    15:00 +4°C° 0 mm 3 m/s 761 mmHg 87%
    16:00 +4°C° 0 mm 3 m/s 761 mmHg 90%
    17:00 +3°C° 0 mm 3 m/s 761 mmHg 94%
    18:00 +3°C° 0 mm 3 m/s 760 mmHg 93%
    19:00 +3°C° 0 mm 4 m/s 760 mmHg 91%
    20:00 +3°C° 0 mm 4 m/s 760 mmHg 90%
    21:00 +4°C° 0 mm 4 m/s 759 mmHg 90%
    22:00 +4°C° 0 mm 4 m/s 759 mmHg 89%
    23:00 +3°C° 0 mm 5 m/s 759 mmHg 89%
    Arată mai mult